Location: Terra Rouge Observatory
(46.0000°N, 62.7500°W)
Time: 19:45:25
(UTC-04:00)

Amateur Radio Satellites - All Passes

Search period start: 03 December 2016 19:15
Search period end: 04 December 2016 19:15
Location: Terra Rouge Observatory, 46.0000°N, 62.7500°W

Satellite Date Start Highest point End Downlink Frequencies (MHz)
Time Altitude Azimuth
CINEMA 3 03 Dec 19:16:11 19:20:55 49° 262° (W) 19:25:49 145.822/145.860
DOVE 4 03 Dec 19:16:38 19:19:26 15° 273° (W) 19:22:20 437.250
SEEDS 03 Dec 19:26:21 19:30:31 80° 256° (WSW) 19:34:43 437.485
PCSat 03 Dec 19:36:58 19:41:21 24° 40° (NE) 19:45:42 145.827
AIST 1 03 Dec 19:41:04 19:44:56 33° 91° (E) 19:48:51
SO-50 03 Dec 19:42:17 19:44:33 13° 109° (ESE) 19:46:49 436.795
COMPASS 1 03 Dec 19:42:20 19:46:27 79° 256° (WSW) 19:50:36 437.405
Cosmos 2504 03 Dec 19:49:00 19:56:57 53° 89° (E) 20:05:23 435.465 / 435.565
CUBEBUG 2 03 Dec 19:53:20 19:58:05 71° 259° (WSW) 20:02:50 437.445
ZACube-1 03 Dec 19:53:34 19:57:59 50° 72° (ENE) 20:02:21 437.345
RS-15 03 Dec 19:54:12 20:00:11 15° 267° (W) 20:06:07 29.354- 29.394
FUNcube-1 03 Dec 20:02:53 20:07:21 58° 73° (ENE) 20:11:46 145.935
HUMSAT D 03 Dec 20:12:51 20:15:22 16° 62° (ENE) 20:17:52 437.325/437.525
CUTE 1.7 + AOD 2 03 Dec 20:14:47 20:17:42 18° 268° (W) 20:20:39 437.475
Cosmos 2491 03 Dec 20:16:02 20:22:46 26° 280° (W) 20:29:30 435.465 / 435.565
HO-68 03 Dec 20:16:38 20:22:47 30° 266° (W) 20:28:59 435.675
STRAND 1 03 Dec 20:18:40 20:23:36 50° 291° (WNW) 20:28:31 437.568
PRISM 03 Dec 20:23:26 20:25:55 15° 91° (E) 20:28:24 437.425
ISS 03 Dec 20:24:04 20:27:02 29° 357° (N) 20:30:00 145.825
CANX-2 03 Dec 20:34:45 20:35:25 10° 273° (W) 20:36:04 2200.000
Oscar 11 03 Dec 20:37:29 20:41:45 65° 258° (WSW) 20:46:04 145.826/435.025
DELFI C3 03 Dec 20:38:44 20:42:29 47° 72° (ENE) 20:46:17 145.870
UWE-3 03 Dec 20:42:29 20:46:45 35° 264° (W) 20:51:02 435.000/436.395/437.385
CUSAT 1 03 Dec 20:43:11 20:46:30 87° 80° (E) 20:50:45 437.405
YUBILEINY 03 Dec 20:46:18 20:54:30 44° 289° (WNW) 21:02:49 435.215
AAUSAT CUBESAT 2 03 Dec 20:51:55 20:54:51 19° 268° (W) 20:57:48 437.432
DANDE 03 Dec 21:02:26 21:04:42 24° 75° (ENE) 21:07:12 436.750
AIST 1 03 Dec 21:19:06 21:22:36 24° 289° (WNW) 21:26:08
SO-50 03 Dec 21:19:36 21:24:23 87° 309° (NW) 21:29:06 436.795
PCSat 03 Dec 21:19:52 21:25:19 74° 241° (WSW) 21:30:42 145.827
ZACube-1 03 Dec 21:31:18 21:34:31 19° 269° (W) 21:37:43 437.345
CUBEBUG 1 03 Dec 21:33:51 21:35:25 12° 58° (ENE) 21:36:58 437.445
UNISAT 6 03 Dec 21:39:58 21:43:35 24° 93° (E) 21:47:07 437.425
FUNcube-1 03 Dec 21:41:05 21:43:56 16° 270° (W) 21:46:46 145.935
Cosmos 2504 03 Dec 21:42:53 21:50:37 40° 292° (WNW) 21:58:47 435.465 / 435.565
HUMSAT D 03 Dec 21:46:23 21:50:34 58° 260° (W) 21:54:42 437.325/437.525
PRISM 03 Dec 21:57:29 22:01:31 52° 288° (WNW) 22:05:33 437.425
ISS 03 Dec 22:00:52 22:04:03 42° 17° (NNE) 22:07:14 145.825
TIGRISAT 03 Dec 22:10:25 22:14:42 45° 98° (E) 22:18:51 435.000
ANTELSAT 03 Dec 22:11:07 22:15:27 48° 99° (E) 22:19:39 437.575/2403.000
DELFI C3 03 Dec 22:15:15 22:17:34 15° 269° (W) 22:19:54 145.870
ESTCUBE 1 03 Dec 22:15:24 22:19:39 45° 70° (ENE) 22:23:55 437.505/2401.250
SPROUT 03 Dec 22:29:17 22:32:17 19° 63° (ENE) 22:35:18 437.525
AISAT 03 Dec 22:33:50 22:37:46 32° 67° (ENE) 22:41:45 437.250
50 SAT 03 Dec 22:51:47 22:54:57 32° 70° (ENE) 22:58:08 437.505
NANOSAT C BR1 03 Dec 22:53:26 22:55:57 15° 90° (E) 22:58:28 145.865
JAS-2 03 Dec 22:55:06 22:59:29 27° 94° (E) 23:03:58 435.910
QB50P2 03 Dec 22:56:12 22:59:14 19° 92° (E) 23:02:14 145.880/145.840
POLYITAN 1 03 Dec 22:56:54 22:59:50 18° 92° (E) 23:02:44 437.675
Cosmos 2499 03 Dec 23:01:58 23:06:01 14° 71° (ENE) 23:10:07 435.465 / 435.565
SO-50 03 Dec 23:02:08 23:05:31 19° 326° (NNW) 23:08:52 436.795
PCSat 03 Dec 23:06:22 23:07:44 11° 259° (W) 23:09:06 145.827
CUBEBUG 1 03 Dec 23:06:38 23:11:00 88° 261° (W) 23:15:25 437.445
VELOX 1 03 Dec 23:10:24 23:14:47 71° 74° (ENE) 23:19:13 145.980
QB50P1 03 Dec 23:10:24 23:13:55 24° 94° (E) 23:17:23 145.935-145.965
UNISAT 6 03 Dec 23:16:19 23:20:24 36° 292° (WNW) 23:24:24 437.425
DUCHIFAT 1 03 Dec 23:16:21 23:19:49 24° 94° (E) 23:23:15 145.980
GONETS M04 03 Dec 23:29:25 23:35:15 20° 76° (ENE) 23:41:04
POPSAT HIP 1 03 Dec 23:31:19 23:35:19 39° 98° (E) 23:39:17 437.405
DX 1 03 Dec 23:32:43 23:37:02 68° 73° (ENE) 23:41:24 434.975-435.025
ISS 03 Dec 23:37:25 23:40:36 44° 215° (SW) 23:43:46 145.825
UKube-1 03 Dec 23:45:11 23:49:27 69° 74° (ENE) 23:53:47 .
TIGRISAT 03 Dec 23:47:47 23:51:05 21° 297° (WNW) 23:54:18 435.000
ANTELSAT 03 Dec 23:48:38 23:51:48 19° 298° (WNW) 23:54:54 437.575/2403.000
ESTCUBE 1 03 Dec 23:53:22 23:56:41 20° 268° (W) 00:00:01 437.505/2401.250
AUBIESAT-1 03 Dec 23:59:43 00:01:18 12° 51° (NE) 00:02:55 437.475
TISAT 1 03 Dec 23:59:53 00:03:32 28° 67° (ENE) 00:07:11 437.305
SPROUT 04 Dec 00:03:41 00:07:50 49° 260° (W) 00:12:04 437.525
M-CUBED/EXP-1 PRIME 04 Dec 00:08:22 00:11:02 17° 54° (NE) 00:13:49 437.505
AISAT 04 Dec 00:10:27 00:14:14 28° 265° (W) 00:18:04 437.250
SWISSCUBE 04 Dec 00:15:39 00:17:44 13° 57° (ENE) 00:19:50 437.505
BEESAT 04 Dec 00:20:00 00:22:05 13° 57° (ENE) 00:24:08 436.000
BUGSAT 1 04 Dec 00:23:46 00:27:54 49° 100° (E) 00:31:56 437.445
50 SAT 04 Dec 00:26:00 00:28:22 17° 267° (W) 00:30:44 437.505
NANOSAT C BR1 04 Dec 00:27:52 00:32:02 54° 288° (WNW) 00:36:07 145.865
QB50P2 04 Dec 00:31:11 00:35:15 44° 290° (WNW) 00:39:16 145.880/145.840
POLYITAN 1 04 Dec 00:31:47 00:35:52 46° 289° (WNW) 00:39:54 437.675
JAS-2 04 Dec 00:39:58 00:44:48 40° 292° (WNW) 00:49:41 435.910
O/OREOS (USA 219) 04 Dec 00:41:01 00:43:34 15° 47° (NE) 00:46:07 437.305
ITUPSAT 1 04 Dec 00:44:13 00:47:41 20° 61° (ENE) 00:51:10 437.325
QB50P1 04 Dec 00:45:54 00:49:44 33° 292° (WNW) 00:53:33 145.935-145.965
Oscar 19 04 Dec 00:47:25 00:51:33 23° 93° (E) 00:55:39 437.125/150
Cosmos 2499 04 Dec 00:48:55 00:57:18 66° 93° (E) 01:06:06 435.465 / 435.565
VELOX 1 04 Dec 00:49:48 00:51:45 13° 271° (W) 00:53:41 145.980
DUCHIFAT 1 04 Dec 00:51:44 00:55:33 33° 292° (WNW) 00:59:20 145.980
POPSAT HIP 1 04 Dec 01:07:35 01:10:52 22° 296° (WNW) 01:14:08 437.405
DX 1 04 Dec 01:11:41 01:13:42 13° 271° (W) 01:15:43 434.975-435.025
GONETS M04 04 Dec 01:22:05 01:30:49 90° 102° (ESE) 01:39:35
UKube-1 04 Dec 01:24:07 01:25:59 12° 271° (W) 01:27:50 .
AO-85 04 Dec 01:26:13 01:27:52 12° 109° (ESE) 01:29:29 145.980
AUBIESAT-1 04 Dec 01:30:48 01:34:54 83° 68° (ENE) 01:39:20 437.475
TISAT 1 04 Dec 01:35:23 01:39:06 29° 264° (W) 01:42:51 437.305
M-CUBED/EXP-1 PRIME 04 Dec 01:40:57 01:44:57 64° 254° (WSW) 01:49:20 437.505
MOZHAYETS 4 04 Dec 01:47:21 01:50:39 20° 63° (ENE) 01:53:57
SWISSCUBE 04 Dec 01:50:01 01:54:48 88° 75° (ENE) 01:59:36 437.505
BEESAT 04 Dec 01:54:20 01:59:07 87° 77° (ENE) 02:03:56 436.000
BUGSAT 1 04 Dec 02:00:03 02:02:54 18° 297° (WNW) 02:05:43 437.445
Gurwin Techsat 1B 04 Dec 02:01:33 02:06:48 55° 101° (E) 02:12:00 435.225
O/OREOS (USA 219) 04 Dec 02:19:06 02:23:37 83° 247° (WSW) 02:28:05 437.305
ITUPSAT 1 04 Dec 02:20:26 02:25:08 55° 259° (W) 02:29:51 437.325
Oscar 19 04 Dec 02:26:07 02:31:08 50° 290° (WNW) 02:36:07 437.125/150
KKS-1 04 Dec 02:35:24 02:39:07 26° 65° (ENE) 02:42:52 437.445
Cosmos 2499 04 Dec 02:43:35 02:51:07 33° 295° (WNW) 02:58:55 435.465 / 435.565
ITAMSAT 1 04 Dec 02:48:58 02:53:44 35° 97° (E) 02:58:27 435.822/435.867
STARS 04 Dec 02:49:12 02:52:14 18° 62° (ENE) 02:55:17 437.465
PHONESAT 2.4 04 Dec 02:55:03 02:57:10 21° 171° (S) 02:59:17 2401.200-2431.200
AO-7 04 Dec 02:57:40 03:04:56 32° 95° (E) 03:12:09 29.400- 29.500
AO-85 04 Dec 03:02:48 03:07:42 82° 126° (SE) 03:12:15 145.980
AUBIESAT-1 04 Dec 03:09:03 03:09:58 11° 268° (W) 03:10:55 437.475
CUBESAT XI-V 04 Dec 03:19:42 03:23:26 25° 65° (ENE) 03:27:11 437.345
GONETS M04 04 Dec 03:22:27 03:28:56 23° 301° (WNW) 03:35:28
MOZHAYETS 4 04 Dec 03:22:58 03:27:27 51° 260° (W) 03:31:57
SWISSCUBE 04 Dec 03:31:44 03:33:15 11° 272° (W) 03:34:45 437.505
BEESAT 04 Dec 03:35:59 03:37:33 11° 272° (W) 03:39:08 436.000
Gurwin Techsat 1B 04 Dec 03:42:14 03:46:23 24° 299° (WNW) 03:50:31 435.225
SO-50 04 Dec 04:08:49 04:12:45 28° 40° (NE) 04:16:37 436.795
KKS-1 04 Dec 04:11:26 04:15:32 35° 262° (W) 04:19:41 437.445
STARS 04 Dec 04:23:51 04:28:11 54° 259° (W) 04:32:34 437.465
ITAMSAT 1 04 Dec 04:28:32 04:33:09 33° 295° (WNW) 04:37:44 435.822/435.867
PHONESAT 2.4 04 Dec 04:29:51 04:32:01 22° 187° (S) 04:34:11 2401.200-2431.200
AO-85 04 Dec 04:45:12 04:48:38 20° 323° (NW) 04:51:53 145.980
AO-7 04 Dec 04:49:57 04:58:14 66° 295° (WNW) 05:06:29 29.400- 29.500
CUBESAT XI-V 04 Dec 04:56:20 05:00:37 39° 263° (W) 05:04:57 437.345
YUBILEINY 04 Dec 04:56:21 05:03:33 27° 62° (ENE) 05:10:41 435.215
GOMX 1 04 Dec 05:10:17 05:14:49 26° 92° (E) 05:19:22 467.674
HORYU 2 04 Dec 05:14:11 05:18:23 39° 99° (E) 05:22:31 437.375
BRITE-PL 04 Dec 05:21:31 05:26:49 67° 101° (E) 05:32:23 437.365/2234.400
Cosmos 2491 04 Dec 05:30:02 05:35:06 17° 74° (ENE) 05:40:10 435.465 / 435.565
DOVE 4 04 Dec 05:33:35 05:37:19 19° 89° (E) 05:40:58 437.250
NOAA 18 04 Dec 05:35:19 05:38:10 14° 88° (E) 05:41:01 137.9125
BEESAT 3 04 Dec 05:38:32 05:42:16 46° 120° (ESE) 05:46:04 437.485
Cosmos 2504 04 Dec 05:38:57 05:45:54 25° 60° (ENE) 05:52:38 435.465 / 435.565
LilacSat-2 04 Dec 05:44:51 05:47:56 23° 94° (E) 05:51:00 437.200
CUTE-I 04 Dec 05:45:04 05:49:31 26° 94° (E) 05:53:57 437.470
AIST 1 04 Dec 05:46:38 05:48:31 12° 64° (ENE) 05:50:23
SO-50 04 Dec 05:49:04 05:53:26 48° 240° (WSW) 05:57:43 436.795
RS-15 04 Dec 05:57:17 06:04:22 18° 95° (E) 06:11:34 29.354- 29.394
STRAND 1 04 Dec 05:58:07 06:02:55 42° 68° (ENE) 06:07:44 437.568
BEESAT 2 04 Dec 06:02:38 06:06:18 38° 119° (ESE) 06:10:02 435.950
Cubesat XI-IV 04 Dec 06:09:51 06:14:57 42° 98° (E) 06:19:58 437.490
NOAA 15 04 Dec 06:15:13 06:20:23 52° 100° (E) 06:25:32 137.62
CANX-2 04 Dec 06:39:24 06:40:49 11° 88° (E) 06:42:13 2200.000
AO-7 04 Dec 06:44:12 06:49:30 19° 317° (NW) 06:54:48 29.400- 29.500
GOMX 1 04 Dec 06:47:52 06:53:05 50° 289° (WNW) 06:58:22 467.674
HORYU 2 04 Dec 06:51:11 06:54:43 24° 296° (WNW) 06:58:14 437.375
YUBILEINY 04 Dec 06:52:31 07:01:20 78° 265° (W) 07:10:09 435.215
BRITE-PL 04 Dec 07:00:59 07:04:51 21° 298° (WNW) 07:08:50 437.365/2234.400
CINEMA 3 04 Dec 07:08:36 07:13:08 36° 95° (E) 07:17:27 145.822/145.860
SEEDS 04 Dec 07:08:59 07:11:16 14° 90° (E) 07:13:32 437.485
DOVE 4 04 Dec 07:10:09 07:15:26 65° 287° (WNW) 07:20:36 437.250
NOAA 18 04 Dec 07:13:59 07:19:34 88° 286° (WNW) 07:25:06 137.9125
PRISM 04 Dec 07:15:24 07:17:56 16° 62° (ENE) 07:20:29 437.425
BEESAT 3 04 Dec 07:16:55 07:20:07 23° 319° (NW) 07:23:20 437.485
LilacSat-2 04 Dec 07:18:58 07:22:14 28° 292° (WNW) 07:25:27 437.200
Cosmos 2491 04 Dec 07:21:40 07:30:26 79° 95° (E) 07:39:13 435.465 / 435.565
AIST 1 04 Dec 07:22:16 07:26:41 75° 263° (W) 07:31:04
COMPASS 1 04 Dec 07:23:56 07:26:07 14° 90° (E) 07:28:17 437.405
CUTE-I 04 Dec 07:24:42 07:29:46 46° 292° (WNW) 07:34:49 437.470
Cosmos 2504 04 Dec 07:31:35 07:40:31 86° 263° (W) 07:48:58 435.465 / 435.565
STRAND 1 04 Dec 07:37:51 07:42:13 28° 266° (W) 07:46:36 437.568
HO-68 04 Dec 07:40:04 07:47:01 49° 100° (E) 07:53:57 435.675
BEESAT 2 04 Dec 07:40:49 07:44:12 26° 318° (NW) 07:47:39 435.950
CUBEBUG 2 04 Dec 07:42:43 07:46:03 20° 91° (E) 07:49:17 437.445
Cubesat XI-IV 04 Dec 07:50:15 07:54:51 30° 296° (WNW) 07:59:25 437.490
CUTE 1.7 + AOD 2 04 Dec 07:55:24 07:59:36 64° 102° (ESE) 08:03:47 437.475
NOAA 15 04 Dec 07:55:39 07:59:50 25° 298° (WNW) 08:04:02 137.62
RS-15 04 Dec 08:02:45 08:14:24 71° 118° (ESE) 08:26:36 29.354- 29.394
AIST 2 04 Dec 08:10:14 08:13:33 24° 114° (ESE) 08:16:54 435.215
CANX-2 04 Dec 08:12:57 08:17:10 72° 285° (WNW) 08:21:21 2200.000
Oscar 11 04 Dec 08:22:54 08:26:00 19° 92° (E) 08:29:04 145.826/435.025
UWE-3 04 Dec 08:29:28 08:33:35 39° 97° (E) 08:37:33 435.000/436.395/437.385
AAUSAT CUBESAT 2 04 Dec 08:29:58 08:34:03 54° 100° (E) 08:38:07 437.432
UNISAT 6 04 Dec 08:40:38 08:44:44 31° 67° (ENE) 08:48:48 437.425
SEEDS 04 Dec 08:43:12 08:47:19 56° 287° (WNW) 08:51:24 437.485
CINEMA 3 04 Dec 08:45:56 08:50:07 29° 295° (WNW) 08:54:10 145.822/145.860
PRISM 04 Dec 08:48:52 08:52:50 52° 259° (W) 08:56:51 437.425
DOVE 4 04 Dec 08:50:37 08:52:04 11° 306° (NW) 08:53:33 437.250
YUBILEINY 04 Dec 08:51:31 08:56:37 17° 286° (WNW) 09:01:43 435.215
NOAA 18 04 Dec 08:56:14 08:59:26 16° 305° (NW) 09:02:39 137.9125
COMPASS 1 04 Dec 08:57:56 09:02:01 57° 287° (WNW) 09:06:06 437.405
TIGRISAT 04 Dec 09:10:46 09:15:20 55° 72° (ENE) 09:19:54 435.000
JAS-2 04 Dec 09:10:55 09:15:16 20° 60° (ENE) 09:19:19 435.910
ANTELSAT 04 Dec 09:11:35 09:16:12 59° 73° (ENE) 09:20:48 437.575/2403.000
ZACube-1 04 Dec 09:15:33 09:19:52 75° 103° (ESE) 09:24:02 437.345
CUBEBUG 2 04 Dec 09:18:39 09:22:54 42° 290° (WNW) 09:26:58 437.445
Cosmos 2491 04 Dec 09:21:13 09:28:18 26° 298° (WNW) 09:35:23 435.465 / 435.565
FUNcube-1 04 Dec 09:24:35 09:28:52 86° 100° (E) 09:33:02 145.935
Cosmos 2504 04 Dec 09:26:44 09:32:32 20° 285° (WNW) 09:38:11 435.465 / 435.565
HUMSAT D 04 Dec 09:28:01 09:30:50 18° 92° (E) 09:33:39 437.325/437.525
HO-68 04 Dec 09:28:04 09:34:36 39° 299° (WNW) 09:41:07 435.675
CUTE 1.7 + AOD 2 04 Dec 09:32:40 09:34:57 14° 299° (WNW) 09:37:13 437.475
GONETS M04 04 Dec 09:35:29 09:38:24 12° 48° (NE) 09:41:18
AIST 2 04 Dec 09:47:53 09:51:48 41° 313° (NW) 09:55:48 435.215
DELFI C3 04 Dec 09:47:57 09:51:52 55° 100° (E) 09:55:46 145.870
NANOSAT C BR1 04 Dec 09:47:58 09:50:43 17° 62° (ENE) 09:53:30 145.865
CUSAT 1 04 Dec 09:49:26 09:52:43 74° 98° (E) 09:55:28 437.405
QB50P2 04 Dec 09:51:09 09:54:20 21° 64° (ENE) 09:57:32 145.880/145.840
POLYITAN 1 04 Dec 09:51:49 09:54:57 20° 64° (ENE) 09:58:05 437.675
AO-85 04 Dec 09:52:34 09:55:41 20° 37° (NE) 09:58:41 145.980
Oscar 11 04 Dec 09:58:14 10:02:20 44° 289° (WNW) 10:06:25 145.826/435.025
QB50P1 04 Dec 10:05:04 10:08:37 26° 66° (ENE) 10:12:12 145.935-145.965
UWE-3 04 Dec 10:06:25 10:09:48 22° 296° (WNW) 10:13:07 435.000/436.395/437.385
AAUSAT CUBESAT 2 04 Dec 10:06:36 10:09:07 16° 297° (WNW) 10:11:38 437.432
DUCHIFAT 1 04 Dec 10:10:24 10:13:55 26° 66° (ENE) 10:17:27 145.980
DANDE 04 Dec 10:12:45 10:17:11 37° 98° (E) 10:20:37 436.750
RS-15 04 Dec 10:16:17 10:27:46 48° 325° (NW) 10:39:41 29.354- 29.394
UNISAT 6 04 Dec 10:17:09 10:21:22 33° 264° (W) 10:25:35 437.425
POPSAT HIP 1 04 Dec 10:25:48 10:29:49 40° 70° (ENE) 10:33:52 437.405
Cosmos 2499 04 Dec 10:37:57 10:45:22 30° 63° (ENE) 10:52:21 435.465 / 435.565
TIGRISAT 04 Dec 10:49:06 10:52:19 18° 269° (W) 10:55:34 435.000
ANTELSAT 04 Dec 10:50:13 10:53:16 17° 270° (W) 10:56:19 437.575/2403.000
JAS-2 04 Dec 10:53:19 10:59:53 77° 256° (WSW) 11:05:42 435.910
ZACube-1 04 Dec 10:53:39 10:55:32 13° 301° (WNW) 10:57:23 437.345
CUBEBUG 1 04 Dec 10:54:00 10:56:31 15° 90° (E) 10:59:01 437.445
VELOX 1 04 Dec 11:00:13 11:01:36 11° 88° (E) 11:03:00 145.980
HUMSAT D 04 Dec 11:02:48 11:06:40 42° 289° (WNW) 11:10:30 437.325/437.525
FUNcube-1 04 Dec 11:03:10 11:04:24 11° 302° (WNW) 11:05:39 145.935
BUGSAT 1 04 Dec 11:15:24 11:19:27 48° 71° (ENE) 11:23:33 437.445
NANOSAT C BR1 04 Dec 11:21:52 11:26:02 54° 260° (W) 11:30:16 145.865
DELFI C3 04 Dec 11:24:02 11:26:15 15° 297° (WNW) 11:28:29 145.870
QB50P2 04 Dec 11:25:46 11:29:51 43° 261° (W) 11:33:58 145.880/145.840
POLYITAN 1 04 Dec 11:26:19 11:30:26 45° 261° (W) 11:34:36 437.675
GONETS M04 04 Dec 11:29:18 11:37:47 52° 73° (ENE) 11:46:14
AIST 2 04 Dec 11:30:39 11:31:24 10° 335° (NNW) 11:32:09 435.215
AO-85 04 Dec 11:32:30 11:36:26 55° 238° (WSW) 11:40:12 145.980
QB50P1 04 Dec 11:40:24 11:44:16 33° 263° (W) 11:48:10 145.935-145.965
ESTCUBE 1 04 Dec 11:41:38 11:46:09 70° 102° (ESE) 11:50:39 437.505/2401.250
DUCHIFAT 1 04 Dec 11:45:37 11:49:29 33° 264° (W) 11:53:21 145.980
SPROUT 04 Dec 11:47:20 11:50:48 23° 94° (E) 11:54:13 437.525
Gurwin Techsat 1B 04 Dec 11:47:37 11:51:07 18° 58° (ENE) 11:54:36 435.225
50 SAT 04 Dec 11:48:33 11:51:36 26° 96° (E) 11:54:39 437.505
DANDE 04 Dec 11:56:50 11:59:50 17° 287° (WNW) 12:02:22 436.750
AISAT 04 Dec 11:57:10 12:01:29 45° 99° (E) 12:05:46 437.250
POPSAT HIP 1 04 Dec 12:02:31 12:05:46 21° 267° (W) 12:09:01 437.405
PCSat 04 Dec 12:03:35 12:08:56 63° 117° (ESE) 12:14:18 145.827
Oscar 19 04 Dec 12:06:27 12:11:15 43° 68° (ENE) 12:16:07 437.125/150
AO-7 04 Dec 12:11:43 12:16:05 16° 39° (NE) 12:20:28 29.400- 29.500
BEESAT 3 04 Dec 12:16:51 12:18:36 12° 31° (NNE) 12:20:22 437.485
CUBEBUG 1 04 Dec 12:28:48 12:33:12 62° 287° (WNW) 12:37:34 437.445
Cosmos 2499 04 Dec 12:30:39 12:39:19 71° 266° (W) 12:47:23 435.465 / 435.565
RS-15 04 Dec 12:33:38 12:44:14 32° 359° (N) 12:54:54 29.354- 29.394
ITAMSAT 1 04 Dec 12:34:01 12:35:48 12° 53° (NE) 12:37:36 435.822/435.867
VELOX 1 04 Dec 12:34:09 12:38:39 81° 285° (WNW) 12:43:06 145.980
BEESAT 2 04 Dec 12:41:43 12:43:10 12° 29° (NNE) 12:44:38 435.950
JAS-2 04 Dec 12:43:15 12:45:41 12° 272° (W) 12:48:02 435.910
BUGSAT 1 04 Dec 12:52:13 12:55:04 17° 269° (W) 12:57:56 437.445
DX 1 04 Dec 12:54:20 12:58:45 90° 20° (NNE) 13:03:09 434.975-435.025
UKube-1 04 Dec 13:05:32 13:09:54 89° 107° (ESE) 13:14:14 .
TISAT 1 04 Dec 13:16:13 13:20:06 34° 97° (E) 13:23:56 437.305
ESTCUBE 1 04 Dec 13:19:53 13:22:26 15° 300° (WNW) 13:24:58 437.505/2401.250
50 SAT 04 Dec 13:22:00 13:24:48 22° 293° (WNW) 13:27:35 437.505
SPROUT 04 Dec 13:22:52 13:26:49 36° 291° (WNW) 13:30:44 437.525
Gurwin Techsat 1B 04 Dec 13:25:08 13:30:27 76° 256° (WSW) 13:35:49 435.225
GONETS M04 04 Dec 13:26:33 13:34:22 39° 275° (W) 13:42:12
AISAT 04 Dec 13:34:16 13:37:39 21° 297° (WNW) 13:41:02 437.250
Oscar 19 04 Dec 13:46:28 13:50:44 26° 266° (W) 13:55:04 437.125/150
PCSat 04 Dec 13:48:10 13:52:44 27° 318° (NW) 13:57:20 145.827
SWISSCUBE 04 Dec 13:48:36 13:51:54 18° 92° (E) 13:55:10 437.505
BEESAT 04 Dec 13:52:53 13:56:09 18° 91° (E) 13:59:24 436.000
BEESAT 3 04 Dec 13:53:03 13:57:02 62° 51° (NE) 14:00:59 437.485
AO-7 04 Dec 13:59:05 14:07:03 54° 62° (ENE) 14:15:05 29.400- 29.500
ITAMSAT 1 04 Dec 14:09:09 14:14:21 70° 72° (ENE) 14:19:33 435.822/435.867
VELOX 1 04 Dec 14:13:17 14:14:20 11° 304° (WNW) 14:15:23 145.980
BEESAT 2 04 Dec 14:17:53 14:21:52 54° 50° (NE) 14:25:49 435.950
ITUPSAT 1 04 Dec 14:18:31 14:22:44 31° 96° (E) 14:26:56 437.325
Cosmos 2499 04 Dec 14:26:25 14:30:40 15° 288° (WNW) 14:34:49 435.465 / 435.565
DX 1 04 Dec 14:32:43 14:34:15 12° 303° (WNW) 14:35:47 434.975-435.025
AUBIESAT-1 04 Dec 14:41:06 14:45:32 43° 103° (ESE) 14:49:48 437.475
UKube-1 04 Dec 14:43:47 14:45:15 12° 302° (WNW) 14:46:43 .
RS-15 04 Dec 14:49:04 15:00:51 46° 32° (NNE) 15:12:25 29.354- 29.394
M-CUBED/EXP-1 PRIME 04 Dec 14:51:30 14:56:12 67° 107° (ESE) 15:00:46 437.505
TISAT 1 04 Dec 14:52:07 14:55:35 25° 295° (WNW) 14:59:01 437.305
BRITE-PL 04 Dec 15:00:28 15:01:58 12° 56° (NE) 15:03:31 437.365/2234.400
Gurwin Techsat 1B 04 Dec 15:10:37 15:11:17 10° 275° (W) 15:11:58 435.225
MOZHAYETS 4 04 Dec 15:15:32 15:19:33 30° 95° (E) 15:23:33
SWISSCUBE 04 Dec 15:25:23 15:30:02 55° 289° (WNW) 15:34:39 437.505
BEESAT 04 Dec 15:29:38 15:34:17 56° 289° (WNW) 15:38:55 436.000
BEESAT 3 04 Dec 15:31:58 15:34:12 15° 249° (WSW) 15:36:24 437.485
ITAMSAT 1 04 Dec 15:51:02 15:54:19 17° 270° (W) 15:57:39 435.822/435.867
AO-7 04 Dec 15:52:26 16:00:03 39° 262° (W) 16:07:45 29.400- 29.500
ITUPSAT 1 04 Dec 15:56:19 16:00:34 33° 294° (WNW) 16:04:48 437.325
BEESAT 2 04 Dec 15:56:36 15:59:17 17° 248° (WSW) 16:01:57 435.950
Cubesat XI-IV 04 Dec 15:57:21 16:00:17 15° 56° (NE) 16:03:13 437.490
KKS-1 04 Dec 15:59:30 16:03:39 35° 97° (E) 16:07:44 437.445
NOAA 15 04 Dec 16:00:36 16:03:54 17° 57° (ENE) 16:07:12 137.62
STARS 04 Dec 16:11:09 16:14:40 22° 94° (E) 16:18:08 437.465
HORYU 2 04 Dec 16:14:11 16:18:31 50° 71° (ENE) 16:22:52 437.375
AUBIESAT-1 04 Dec 16:15:53 16:19:41 26° 301° (WNW) 16:23:24 437.475
ISS 04 Dec 16:20:10 16:22:05 15° 134° (SE) 16:24:00 145.825
GOMX 1 04 Dec 16:21:02 16:25:02 30° 66° (ENE) 16:29:19 467.674
M-CUBED/EXP-1 PRIME 04 Dec 16:26:55 16:30:09 19° 305° (NW) 16:33:21 437.505
AIST 2 04 Dec 16:28:22 16:32:20 37° 46° (NE) 16:36:17 435.215
LilacSat-2 04 Dec 16:29:33 16:32:14 18° 65° (ENE) 16:34:54 437.200
HO-68 04 Dec 16:29:53 16:31:52 11° 42° (NE) 16:33:53 435.675
O/OREOS (USA 219) 04 Dec 16:33:29 16:38:02 72° 111° (ESE) 16:42:35 437.305
BRITE-PL 04 Dec 16:35:22 16:39:39 89° 255° (WSW) 16:44:16 437.365/2234.400
DOVE 4 04 Dec 16:41:16 16:45:02 23° 62° (ENE) 16:48:59 437.250
CUBESAT XI-V 04 Dec 16:49:51 16:54:17 42° 98° (E) 16:58:42 437.345
MOZHAYETS 4 04 Dec 16:52:41 16:56:42 31° 293° (WNW) 17:00:42
RS-15 04 Dec 17:02:10 17:14:33 78° 239° (WSW) 17:26:31 29.354- 29.394
NOAA 18 04 Dec 17:03:02 17:08:01 35° 64° (ENE) 17:13:02 137.9125
CUTE-I 04 Dec 17:09:01 17:14:15 55° 70° (ENE) 17:19:29 437.470
Cosmos 2491 04 Dec 17:29:07 17:37:24 45° 71° (ENE) 17:45:37 435.465 / 435.565
Cubesat XI-IV 04 Dec 17:34:11 17:39:35 87° 74° (ENE) 17:45:00 437.490
CANX-2 04 Dec 17:34:49 17:36:37 13° 60° (ENE) 17:38:24 2200.000
KKS-1 04 Dec 17:36:18 17:40:04 27° 295° (WNW) 17:43:48 437.445
NOAA 15 04 Dec 17:37:48 17:43:03 79° 256° (WSW) 17:48:19 137.62
STARS 04 Dec 17:47:00 17:51:09 39° 291° (WNW) 17:55:15 437.465
HORYU 2 04 Dec 17:52:15 17:55:21 18° 268° (W) 17:58:28 437.375
ISS 04 Dec 17:54:51 17:58:09 88° 150° (SSE) 18:01:28 145.825
GOMX 1 04 Dec 17:58:59 18:03:04 33° 266° (W) 18:07:27 467.674
YUBILEINY 04 Dec 18:01:58 18:08:43 26° 80° (E) 18:15:31 435.215
LilacSat-2 04 Dec 18:02:37 18:06:15 39° 262° (W) 18:09:54 437.200
SEEDS 04 Dec 18:03:26 18:05:44 15° 62° (ENE) 18:08:03 437.485
AIST 2 04 Dec 18:07:04 18:10:42 28° 245° (WSW) 18:14:19 435.215
STRAND 1 04 Dec 18:08:35 18:09:52 11° 86° (E) 18:11:10 437.568
HO-68 04 Dec 18:11:08 18:17:52 47° 64° (ENE) 18:24:39 435.675
CINEMA 3 04 Dec 18:11:48 18:16:27 44° 70° (ENE) 18:21:14 145.822/145.860
O/OREOS (USA 219) 04 Dec 18:15:00 18:17:58 17° 312° (NW) 18:20:55 437.305
COMPASS 1 04 Dec 18:17:28 18:19:37 14° 61° (ENE) 18:21:45 437.405
DOVE 4 04 Dec 18:17:44 18:22:21 49° 262° (W) 18:27:18 437.250
Cosmos 2504 04 Dec 18:23:04 18:27:56 17° 73° (ENE) 18:32:54 435.465 / 435.565
CUBESAT XI-V 04 Dec 18:27:43 18:31:26 24° 295° (WNW) 18:35:10 437.345
ZACube-1 04 Dec 18:41:04 18:41:59 11° 58° (ENE) 18:42:55 437.345
CUBEBUG 2 04 Dec 18:42:34 18:46:29 26° 65° (ENE) 18:50:21 437.445
NOAA 18 04 Dec 18:43:31 18:48:37 38° 263° (W) 18:53:47 137.9125
FUNcube-1 04 Dec 18:49:03 18:50:40 12° 59° (ENE) 18:52:17 145.935
CUTE 1.7 + AOD 2 04 Dec 18:50:04 18:54:14 61° 73° (ENE) 18:58:24 437.475
CUTE-I 04 Dec 18:50:28 18:54:37 22° 268° (W) 18:58:47 437.470
PCSat 04 Dec 19:06:18 19:10:14 20° 36° (NE) 19:14:09 145.827
